$Date,$Time,DM0201B,DM0203B,DM0205B,DM0207B,DM0209B
11/06/98,00:00:01,260,169,-12,330,939
11/06/98,00:05:01,264,169,-12,287,939
11/06/98,00:10:01,227,169,-12,285,939
11/06/98,00:15:01,288,169,-12,267,939
11/06/98,00:20:01,300,169,-12,277,939
11/06/98,00:25:01,320,169,-12,305,939
11/06/98,00:30:01,273,169,-12,283,939
11/06/98,00:35:01,223,158,-12,359,939
11/06/98,00:40:01,314,169,-12,334,939
11/06/98,00:45:01,302,169,-12,355,939
11/06/98,00:50:01,325,169,-11,378,939
11/06/98,00:55:01,290,179,-11,381,939
11/06/98,01:00:01,279,179,-11,386,939
11/06/98,01:05:01,282,169,-11,301,939
11/06/98,01:10:01,258,169,-11,247,939
11/06/98,01:15:01,254,180,-11,279,939
11/06/98,01:20:01,279,181,-12,263,939
11/06/98,01:25:01,276,180,-12,216,939
11/06/98,01:30:01,256,180,-12,215,939
11/06/98,01:35:01,203,180,-12,212,939
11/06/98,01:40:01,244,180,-12,206,939
11/06/98,01:45:01,271,180,-12,222,939
11/06/98,01:50:01,244,180,-12,264,939
11/06/98,01:55:01,264,180,-12,246,939
11/06/98,02:00:01,302,180,-12,309,937
11/06/98,02:05:01,312,177,-11,254,937
11/06/98,02:10:01,268,176,-12,241,937
11/06/98,02:15:01,308,176,-12,234,937
11/06/98,02:20:01,306,173,-12,240,937
11/06/98,02:25:01,283,184,-12,240,937
11/06/98,02:30:01,277,184,-12,233,937
11/06/98,02:35:01,249,184,-12,229,937
11/06/98,02:40:01,263,174,-12,221,937
11/06/98,02:45:01,290,184,-12,221,937
11/06/98,02:50:01,285,184,-12,219,937
11/06/98,02:55:01,267,183,-12,229,937
11/06/98,03:00:01,320,181,-12,235,937
11/06/98,03:05:01,319,181,-12,241,937
11/06/98,03:10:01,291,171,-12,239,937
11/06/98,03:15:01,277,181,-12,237,937
11/06/98,03:20:01,309,181,-12,247,937
11/06/98,03:25:01,345,181,-12,255,937
11/06/98,03:30:01,325,182,-12,269,937
11/06/98,03:35:01,294,182,-12,292,937
11/06/98,03:40:01,296,178,-11,302,937
11/06/98,03:45:01,344,178,-11,292,937
11/06/98,03:50:01,323,178,-11,279,937
11/06/98,03:55:01,340,178,-12,269,937
11/06/98,04:00:01,345,178,-12,267,937
11/06/98,04:05:01,312,178,-12,265,937
11/06/98,04:10:01,284,188,-12,255,937
11/06/98,04:15:01,353,185,-12,253,937
11/06/98,04:20:01,342,185,-12,249,937
11/06/98,04:25:01,387,185,-13,231,937
11/06/98,04:30:01,395,185,-13,214,937
11/06/98,04:35:01,460,174,-13,184,937
11/06/98,04:40:01,408,184,-13,166,937
11/06/98,04:45:01,405,184,-13,160,937
11/06/98,04:50:01,346,173,-13,154,937
11/06/98,04:55:01,439,173,-13,150,937
11/06/98,05:00:01,441,174,-13,146,937
11/06/98,05:05:01,484,174,-13,142,937
11/06/98,05:10:01,424,174,-13,136,937
11/06/98,05:15:01,383,174,-13,136,937
11/06/98,05:20:01,454,174,-13,140,937
11/06/98,05:25:01,463,174,-13,148,937
11/06/98,05:30:01,525,174,-13,152,937
11/06/98,05:35:01,522,174,-14,150,937
11/06/98,05:40:01,467,174,-14,142,935
11/06/98,05:45:01,600,175,-14,138,935
11/06/98,05:50:01,540,165,-14,144,935
11/06/98,05:55:01,480,168,-14,148,935
11/06/98,06:00:01,555,178,-14,142,935
11/06/98,06:05:01,509,167,-14,127,935
11/06/98,06:10:01,496,167,-14,114,935
11/06/98,06:15:01,528,167,-14,110,935
11/06/98,06:20:01,520,167,-14,108,935
11/06/98,06:25:01,509,167,-14,106,935
11/06/98,06:30:01,536,164,-14,98,935
11/06/98,06:35:01,463,164,-14,92,935
11/06/98,06:40:01,493,164,-14,90,937
11/06/98,06:45:01,508,164,-14,88,937
11/06/98,06:50:01,462,164,-14,84,937
11/06/98,06:55:01,492,164,-14,84,937
11/06/98,07:00:01,390,164,-14,84,937
11/06/98,07:05:01,456,164,-14,86,937
11/06/98,07:10:01,459,164,-14,82,937
11/06/98,07:15:01,483,165,-13,78,937
11/06/98,07:20:01,483,165,-14,76,937
11/06/98,07:25:01,460,165,-13,72,937
11/06/98,07:30:01,470,171,-13,72,937
11/06/98,07:35:01,429,171,-13,68,937
11/06/98,07:40:01,575,183,-13,68,937
11/06/98,07:45:01,436,169,-13,72,937
11/06/98,07:50:01,496,183,-13,68,935
11/06/98,07:55:01,552,183,-12,64,935
11/06/98,08:00:01,590,183,-12,60,935
11/06/98,08:05:01,608,183,-12,54,935
11/06/98,08:10:01,530,184,-12,48,935
11/06/98,08:15:01,531,184,-13,46,935
11/06/98,08:20:01,553,181,-12,42,935
11/06/98,08:25:01,587,181,-12,42,935
11/06/98,08:30:01,614,181,-12,40,935
11/06/98,08:35:01,613,173,-13,40,935
11/06/98,08:40:01,595,173,-13,40,935
11/06/98,08:45:01,612,173,-12,36,935
11/06/98,08:50:01,649,173,-12,36,935
11/06/98,08:55:01,570,174,-13,36,937
11/06/98,09:00:01,598,174,-13,34,935
11/06/98,09:05:01,574,174,-13,34,935
11/06/98,09:10:01,666,174,-13,34,935
11/06/98,09:15:01,591,174,-13,34,935
11/06/98,09:20:01,619,174,-13,34,935
11/06/98,09:25:01,597,174,-13,36,935
11/06/98,09:30:01,575,174,-13,38,935
11/06/98,09:35:01,612,174,-13,42,935
11/06/98,09:40:01,625,174,-13,44,935
11/06/98,09:45:01,574,174,-13,46,935
11/06/98,09:50:01,607,174,-13,48,935
11/06/98,09:55:01,684,174,-13,50,935
11/06/98,10:00:01,684,176,-13,60,935
11/06/98,10:05:01,612,166,-13,81,935
11/06/98,10:10:01,657,166,-13,87,935
11/06/98,10:15:01,635,167,-13,70,935
11/06/98,10:20:01,623,178,-13,66,935
11/06/98,10:25:01,669,178,-13,63,935
11/06/98,10:30:01,610,168,-13,54,937
11/06/98,10:35:01,503,179,-13,56,937
11/06/98,10:40:01,550,169,-13,60,937
11/06/98,10:45:01,596,169,-13,60,937
11/06/98,10:50:01,564,169,-13,57,937
11/06/98,10:55:01,620,173,-13,57,935
11/06/98,11:00:01,669,173,-13,57,935
11/06/98,11:05:01,469,166,-13,53,937
11/06/98,11:10:01,538,175,-13,62,937
11/06/98,11:15:01,577,172,-13,64,937
11/06/98,11:20:01,643,159,-13,68,937
11/06/98,11:25:01,585,169,-13,81,937
11/06/98,11:30:01,635,169,-13,80,937
11/06/98,11:35:01,606,172,-13,85,937
11/06/98,11:40:01,620,162,-13,85,937
11/06/98,11:45:01,553,166,-13,85,937
11/06/98,11:50:01,618,166,-13,83,937
11/06/98,11:55:01,544,166,-13,81,937
11/06/98,12:00:01,514,176,-13,83,937
11/06/98,12:05:01,522,177,-13,93,937
11/06/98,12:10:01,482,177,-13,106,937
11/06/98,12:15:01,476,177,-13,114,937
11/06/98,12:20:01,523,177,-13,122,937
11/06/98,12:25:01,496,177,-13,130,937
11/06/98,12:30:01,511,177,-13,126,937
11/06/98,12:35:01,526,177,-13,122,937
11/06/98,12:40:01,500,166,-13,99,937
11/06/98,12:45:01,512,178,-13,103,937
11/06/98,12:50:01,558,178,-13,98,937
11/06/98,12:55:01,519,180,-13,101,937
11/06/98,13:00:01,481,180,-13,110,937
11/06/98,13:05:01,474,181,-13,114,937
11/06/98,13:10:01,466,179,-13,110,937
11/06/98,13:15:01,583,167,-13,104,937
11/06/98,13:20:01,635,166,-13,102,937
11/06/98,13:25:01,599,178,-13,104,937
11/06/98,13:30:01,654,168,-13,94,937
11/06/98,13:35:01,589,172,-13,81,937
11/06/98,13:40:01,599,171,-13,94,935
11/06/98,13:45:01,692,183,-13,82,935
11/06/98,13:50:01,680,172,-13,93,937
11/06/98,13:55:01,627,172,-13,89,937
11/06/98,14:00:01,649,182,-13,88,937
11/06/98,14:05:01,576,182,-13,100,937
11/06/98,14:10:01,557,182,-13,110,937
11/06/98,14:15:01,683,172,-13,110,937
11/06/98,14:20:01,567,172,-13,108,937
11/06/98,14:25:01,737,172,-13,104,937
11/06/98,14:30:01,650,172,-13,96,935
11/06/98,14:35:01,671,168,-13,94,937
11/06/98,14:40:01,706,178,-13,96,935
11/06/98,14:45:01,655,174,-13,100,937
11/06/98,14:50:01,732,174,-13,104,937
11/06/98,14:55:01,684,172,-13,110,935
11/06/98,15:00:01,695,172,-13,110,935
11/06/98,15:05:01,635,171,-13,114,935
11/06/98,15:10:01,601,161,-13,118,935
11/06/98,15:15:01,641,174,-13,125,935
11/06/98,15:20:01,622,173,-13,128,937
11/06/98,15:25:01,560,173,-13,179,937
11/06/98,15:30:01,585,173,-13,188,937
11/06/98,15:35:01,642,173,-13,194,937
11/06/98,15:40:01,642,173,-13,198,937
11/06/98,15:45:01,609,173,-13,199,937
11/06/98,15:50:01,671,163,-12,204,937
11/06/98,15:55:01,670,163,-12,203,937
11/06/98,16:00:01,757,174,-12,188,935
11/06/98,16:05:01,666,174,-12,160,937
11/06/98,16:10:01,739,172,-13,139,935
11/06/98,16:15:01,782,172,-13,121,937
11/06/98,16:20:01,677,172,-13,123,935
11/06/98,16:25:01,754,174,-13,123,935
11/06/98,16:30:01,762,164,-13,132,935
11/06/98,16:35:01,746,164,-13,132,937
11/06/98,16:40:01,740,174,-13,135,937
11/06/98,16:45:01,815,164,-13,127,937
11/06/98,16:50:01,731,177,-13,129,937
11/06/98,16:55:01,717,167,-13,146,937
11/06/98,17:00:01,759,167,-13,153,935
11/06/98,17:05:01,759,167,-13,177,937
11/06/98,17:10:01,779,167,-13,170,937
11/06/98,17:15:01,655,167,-13,153,937
11/06/98,17:20:01,689,167,-13,147,937
11/06/98,17:25:01,674,167,-13,150,937
11/06/98,17:30:01,674,167,-13,154,937
11/06/98,17:35:01,641,167,-14,150,937
11/06/98,17:40:01,586,167,-13,158,937
11/06/98,17:45:01,550,167,-13,170,939
11/06/98,17:50:01,492,167,-13,189,939
11/06/98,17:55:01,550,167,-13,195,939
11/06/98,18:00:01,513,167,-13,201,939
11/06/98,18:05:01,484,167,-13,197,939
11/06/98,18:10:01,429,167,-13,231,939
11/06/98,18:15:01,408,167,-13,207,939
11/06/98,18:20:01,394,167,-13,151,939
11/06/98,18:25:01,295,167,-13,139,939
11/06/98,18:30:01,437,168,-13,133,939
11/06/98,18:35:01,368,166,-13,127,939
11/06/98,18:40:01,404,165,-13,123,939
11/06/98,18:45:01,410,168,-13,121,939
11/06/98,18:50:01,389,170,-12,125,939
11/06/98,18:55:01,443,170,-12,125,939
11/06/98,19:00:01,434,170,-12,127,939
11/06/98,19:05:01,410,168,-12,131,939
11/06/98,19:10:01,340,169,-12,135,939
11/06/98,19:15:01,436,168,-12,135,939
11/06/98,19:20:01,421,166,-12,135,939
11/06/98,19:25:01,425,176,-12,139,939
11/06/98,19:30:01,420,176,-12,141,939
11/06/98,19:35:01,471,176,-12,145,939
11/06/98,19:40:01,392,177,-12,147,939
11/06/98,19:45:01,344,176,-12,147,939
11/06/98,19:50:01,389,176,-12,149,939
11/06/98,19:55:01,406,176,-12,149,939
11/06/98,20:00:01,368,176,-12,151,939
11/06/98,20:05:01,356,176,-12,155,939
11/06/98,20:10:01,370,176,-12,159,939
11/06/98,20:15:01,291,176,-12,165,939
11/06/98,20:20:01,291,176,-12,171,939
11/06/98,20:25:01,353,171,-12,173,939
11/06/98,20:30:01,262,171,-12,177,939
11/06/98,20:35:01,301,171,-11,179,939
11/06/98,20:40:01,245,172,-12,187,939
11/06/98,20:45:01,253,175,-11,195,939
11/06/98,20:50:01,261,175,-11,205,939
11/06/98,20:55:01,198,175,-11,219,939
11/06/98,21:00:01,236,178,-11,233,939
11/06/98,21:05:01,198,170,-11,239,939
11/06/98,21:10:01,217,165,-11,243,939
11/06/98,21:15:01,222,165,-11,243,939
11/06/98,21:20:01,186,165,-11,243,939
11/06/98,21:25:01,220,165,-11,237,939
11/06/98,21:30:01,188,164,-11,237,939
11/06/98,21:35:01,218,174,-11,237,939
11/06/98,21:40:01,246,159,-11,241,939
11/06/98,21:45:01,162,160,-10,241,939
11/06/98,21:50:01,180,155,-10,247,939
11/06/98,21:55:01,172,166,-10,261,939
11/06/98,22:00:01,164,176,-10,271,939
11/06/98,22:05:01,162,166,-10,291,939
11/06/98,22:10:01,199,170,-10,289,939
11/06/98,22:15:01,203,170,-10,264,939
11/06/98,22:20:01,203,158,-10,248,939
11/06/98,22:25:01,179,147,-10,256,939
11/06/98,22:30:01,157,137,-10,252,939
11/06/98,22:35:01,135,144,-10,246,939
11/06/98,22:40:01,128,152,-10,232,939
11/06/98,22:45:01,146,167,-10,245,939
11/06/98,22:50:01,262,174,-11,263,941
11/06/98,22:55:01,225,160,-11,263,941
11/06/98,23:00:01,230,174,-11,272,941
11/06/98,23:05:01,260,179,-12,305,941
11/06/98,23:10:01,243,158,-12,302,941
11/06/98,23:15:01,301,154,-12,339,941
11/06/98,23:20:01,239,155,-12,338,941
11/06/98,23:25:01,319,170,-13,420,941
11/06/98,23:30:01,402,180,-13,336,939
11/06/98,23:35:01,436,180,-14,249,939
11/06/98,23:40:01,411,180,-14,217,939
11/06/98,23:45:01,381,168,-14,225,939
11/06/98,23:50:01,417,178,-14,251,939
11/06/98,23:55:01,438,166,-14,266,939
11/07/98,00:00:01,458,166,-13,289,939
